Orbital Elements at Epoch 2459000.5 (2020-May-31.0) TDB
Reference: JPL 16 (heliocentric ecliptic J2000)
Element | Value | Uncertainty (1-sigma) | Units |
e | .08160991019713811 | 6.752e-08 | |
a | 2.708789941878732 | 3.4028e-08 | au |
q | 2.487725837979098 | 1.9567e-07 | au |
i | 5.400103888072625 | 7.0623e-06 | deg |
node | 13.45901594537945 | 5.5775e-05 | deg |
peri | 332.4891437336006 | 6.5235e-05 | deg |
M | 130.4275083668403 | 3.3403e-05 | deg |
tp | 2458410.532461755502 (2018-Oct-19.03246176) | 0.00015112 | TDB |
period | 1628.401220167881 4.46 | 3.0684e-05 8.401e-08 | d yr |
n | .2210757370734994 | 4.1657e-09 | deg/d |
Q | 2.929854045778367 | 3.6805e-08 | au |
|
| | Orbit Determination Parameters
Additional Information
|